Location: Bussy-Saint-Georges
(48.8410°N, 2.7017°E)
Time: 21:56:09
(UTC+00:00)

Iridium 4 Rocket - Pass Details

Date: 18 October 2021
Orbit: 586 x 903 km, 86.9° (Epoch: 06 December)

Event Time Altitude Azimuth Distance (km) Brightness Sun altitude
Rises 17:58:02 0° 2° (N) 2,890 6.5 -11.3°
Reaches altitude 10° 18:00:16 10° 9° (N) 2,011 5.6 -11.7°
Maximum altitude 18:04:30 44° 82° (E) 916 3.5 -12.4°
Drops below altitude 10° 18:09:02 10° 155° (SSE) 2,157 5.6 -13.1°
Sets 18:11:30 0° 162° (SSE) 3,125 6.5 -13.5°
